Content
SEND FEEDBACK

Daily
Averages
Monthly
Summary
United States of America

LAKE PLACID, NEW YORK


Home > North America > United States > New York
Elevation: 1984 feet     Latitude: 44 15N     Longitude: 073 59W

WEATHER
 
SELECT A DAY
Number of Records: 231,409;   Date Range: 1/1/95 - 12/17/14
 
SHARE

PRINT THIS DATA

[ ← Previous Day ]
WEATHER ALMANAC - JANUARY 31, 2013
[ Next Day → ]
[ °C ]   °F
Weather ElementAverageHighLow
Temperature28.3 °F50 °F (1:51 am)14 °F (10:51 pm)
Dewpoint21.9 °F48 °F (2:51 am)3 °F (8:51 pm)
Humidity77.6 %97 % (2:51 am)54 % (7:51 pm)
Barometer29.12 in29.51 in (11:51 pm)28.84 in (4:51 am)
Wind Speed18.1 mph27.6 mph (12:06 pm)
Wind Gust50.6 mph (9:00 am)
Weather ElementAverage
Visibility4.4 mi
Wind DirectionWSW (242.2 °)

Weather ElementTotal
Precipitation0.44 in
Heating Degree Days33 (Base 65)
Averaged from 58 records on January 31, 2013
WEATHER CONDITIONS BREAKOUT
WIND DIRECTION BREAKOUT
WEATHER BY HOUR - JANUARY 31, 2013
[ °C ]   °F
Local TimeTemperatureDewpointHumidityBarometerVisibilityWind DirectionWind SpeedGust SpeedPrecipitationEventsConditions
1:51 AM50.0 °F46.9 °F89 %29.05 in8.0 miSouth (180°)9.2 mph0.04 inRainLight Rain
2:51 AM48.9 °F48.0 °F97 %28.99 in5.0 miSouth (180°)6.9 mph0.07 inRainRain
3:51 AM48.9 °F48.0 °F97 %28.90 in8.0 miSouth (170°)5.8 mph0.10 inRainLight Rain
4:51 AM48.9 °F46.9 °F93 %28.84 in7.0 miSouth (190°)13.8 mph20.7 mph0.07 inRainLight Rain
5:26 AM44.6 °F42.8 °F93 %28.90 in8.0 miWSW (240°)18.4 mph35.7 mph0.02 inRainLight Rain
5:43 AM42.8 °F39.2 °F87 %28.90 in9.0 miWSW (240°)17.3 mph24.2 mph0.04 inRainLight Rain
5:51 AM39.9 °F37.0 °F89 %28.92 in10.0 miWSW (240°)18.4 mph35.7 mph0.04 inRainLight Rain
6:03 AM39.2 °F37.4 °F93 %28.88 in10.0 miWSW (240°)10.4 mph19.6 mph0.00 inRainLight Rain
6:51 AM36.0 °F34.0 °F93 %28.94 in8.0 miSW (230°)17.3 mph25.3 mph0.03 inRainLight Rain
7:25 AM33.8 °F30.2 °F87 %28.97 in2.5 miSW (230°)21.9 mph33.4 mph0.00 inSnowLight Snow
7:34 AM33.8 °F30.2 °F87 %28.96 in1.0 miSW (230°)15.0 mph28.8 mph0.00 inSnowLight Snow
7:41 AM33.8 °F30.2 °F87 %28.97 in1.2 miWSW (240°)13.8 mph24.2 mph0.00 inSnowLight Snow
7:51 AM33.1 °F30.9 °F92 %28.98 in1.0 miWSW (240°)18.4 mph29.9 mph0.00 inSnowLight Snow
7:59 AM32.0 °F30.2 °F93 %28.97 in0.5 miWSW (240°)13.8 mph34.5 mph0.00 inFog-SnowSnow
8:13 AM32.0 °F30.2 °F93 %28.98 in1.8 miSW (230°)17.3 mph28.8 mph0.00 inSnowLight Snow
8:20 AM33.8 °F30.2 °F87 %28.98 in2.0 miWSW (240°)13.8 mph28.8 mph0.00 inSnowLight Snow
8:25 AM32.0 °F30.2 °F93 %28.98 in1.0 miWSW (240°)17.3 mph24.2 mph0.00 inSnowLight Snow
8:42 AM32.0 °F28.4 °F87 %28.99 in1.2 miWest (260°)24.2 mph44.9 mph0.01 inSnowLight Snow
8:44 AM30.2 °F28.4 °F93 %28.99 in3.0 miWSW (250°)20.7 mph44.9 mph0.01 inOvercast
8:51 AM30.9 °F28.0 °F89 %29.01 in4.0 miWest (260°)21.9 mph41.4 mph0.01 inOvercast
9:00 AM30.2 °F26.6 °F86 %29.00 in5.0 miWSW (250°)23.0 mph50.6 mph0.00 inOvercast
9:51 AM28.9 °F24.1 °F82 %29.06 in9.0 miWSW (240°)23.0 mph33.4 mph0.00 inSnowLight Snow
10:22 AM28.4 °F19.4 °F69 %29.07 in10.0 miWSW (240°)20.7 mph44.9 mph0.00 inOvercast
10:51 AM27.0 °F19.9 °F75 %29.11 in10.0 miWSW (240°)17.3 mph35.7 mph0.00 inOvercast
11:21 AM26.6 °F19.4 °F74 %29.08 in9.0 miWSW (250°)19.6 mph46.0 mphOvercast
11:48 AM26.6 °F19.4 °F74 %29.09 in5.0 miWest (260°)21.9 mph43.7 mph0.00 inSnowLight Snow
11:51 AM26.1 °F19.0 °F75 %29.12 in5.0 miWSW (250°)26.5 mph43.7 mph0.00 inSnowLight Snow
12:06 PM26.6 °F17.6 °F69 %29.10 in1.8 miWSW (250°)27.6 mph39.1 mph0.00 inSnowLight Snow
12:14 PM24.8 °F19.4 °F80 %29.11 in0.2 miWSW (240°)17.3 mph40.3 mph0.00 inSnowHeavy Snow
12:26 PM24.8 °F19.4 °F80 %29.11 in1.0 miSW (230°)23.0 mph39.1 mph0.00 inSnowLight Snow
12:35 PM26.6 °F19.4 °F74 %29.11 in2.0 miWSW (250°)19.6 mph39.1 mph0.00 inSnowLight Snow
12:47 PM24.8 °F19.4 °F80 %29.12 in0.8 miWest (270°)12.7 mph33.4 mph0.00 inSnowLight Snow
12:51 PM24.1 °F21.0 °F88 %29.15 in0.2 miWSW (250°)16.1 mph26.5 mph0.00 inFog-SnowHeavy Snow
1:11 PM24.8 °F21.2 °F86 %29.13 in0.2 miWest (260°)12.7 mph20.7 mph0.00 inFog-SnowHeavy Snow
1:29 PM24.8 °F19.4 °F80 %29.13 in0.5 miWest (260°)17.3 mph33.4 mph0.00 inFog-SnowSnow
1:36 PM23.0 °F19.4 °F86 %29.13 in0.2 miWest (260°)27.6 mph44.9 mph0.00 inFog-SnowSnow
1:41 PM23.0 °F17.6 °F80 %29.13 in0.5 miWSW (250°)20.7 mph44.9 mph0.00 inSnowSnow
1:47 PM24.8 °F17.6 °F74 %29.14 in1.2 miWSW (250°)20.7 mph39.1 mph0.00 inSnowLight Snow
1:51 PM24.1 °F17.1 °F75 %29.17 in2.5 miWSW (240°)16.1 mph39.1 mph0.00 inOvercast
2:15 PM24.8 °F15.8 °F69 %29.14 in1.2 miWSW (240°)23.0 mph42.6 mph0.00 inSnowLight Snow
2:24 PM24.8 °F15.8 °F69 %29.15 in1.8 miWSW (250°)23.0 mph42.6 mph0.00 inOvercast
2:36 PM24.8 °F14.0 °F64 %29.16 in2.5 miWSW (250°)21.9 mph39.1 mph0.00 inOvercast
2:51 PM24.1 °F14.0 °F65 %29.20 in2.0 miWSW (250°)19.6 mph43.7 mph0.00 inHaze
3:10 PM23.0 °F12.2 °F63 %29.19 in1.5 miWSW (250°)23.0 mph40.3 mph0.00 inOvercast
3:18 PM23.0 °F12.2 °F63 %29.19 in3.0 miWSW (240°)18.4 mph42.6 mph0.00 inHaze
3:33 PM23.0 °F10.4 °F59 %29.21 in2.5 miWSW (240°)26.5 mph44.9 mph0.00 inHaze
3:40 PM23.0 °F10.4 °F59 %29.21 in5.0 miWSW (250°)15.0 mph44.9 mph0.00 inHaze
3:51 PM23.0 °F10.9 °F60 %29.25 in9.0 miWSW (250°)18.4 mph39.1 mph0.00 inOvercast
4:16 PM21.2 °F12.2 °F68 %29.23 in1.8 miWSW (250°)20.7 mph34.5 mph0.00 inSnowLight Snow
4:26 PM21.2 °F10.4 °F63 %29.24 in3.0 miWSW (250°)19.6 mph41.4 mph0.00 inSnowLight Snow
4:51 PM21.9 °F10.0 °F60 %29.28 in8.0 miWSW (250°)17.3 mph28.8 mph0.00 inSnowLight Snow
5:51 PM19.9 °F8.1 °F60 %29.34 in10.0 miWSW (240°)19.6 mph32.2 mph0.00 inOvercast
6:51 PM19.0 °F7.0 °F59 %29.39 in10.0 miWest (260°)15.0 mph36.8 mphOvercast
7:51 PM18.0 °F3.9 °F54 %29.42 in10.0 miWest (260°)17.3 mph41.4 mphOvercast
8:51 PM17.1 °F3.0 °F54 %29.45 in10.0 miWest (260°)16.1 mph34.5 mphOvercast
9:51 PM16.0 °F5.0 °F62 %29.47 in8.0 miWest (260°)10.4 mph26.5 mphOvercast
10:51 PM14.0 °F6.1 °F71 %29.49 in7.0 miWSW (250°)10.4 mph16.1 mphOvercast
11:51 PM14.0 °F7.0 °F74 %29.51 in5.0 miWSW (240°)12.7 mph20.7 mphHaze
Hourly data recorded from KSLK, located miles away from Lake Placid, New York







STORIES FROM OUR PARTNERS